Rochester, NY

7:48 AM EST on November 17, 2019 (GMT -0500)
Greater Rochester International

Weather History for KROC - October, 2019

Change the Weather History Date:

Wednesday, October 23, 2019

  Actual Average Record
Temperature  
Mean Temperature 52 °F 48 °F  
Max Temperature 57 °F 57 °F 79 °F (1963)
Min Temperature 46 °F 39 °F 22 °F (1969)
Degree Days  
Heating Degree Days 13 17  
Month to date heating degree days 271 307  
Since 1 July heating degree days 335 488  
Cooling Degree Days 0 0  
Month to date cooling degree days 13 0  
Year to date cooling degree days 621 534  
Growing Degree Days 2 (Base 50)    
Moisture  
Dew Point 39 °F    
Average Humidity 64    
Maximum Humidity 89    
Minimum Humidity 40    
Precipitation  
Precipitation 0.01 in 0.09 in 2.34 in (1878)
Month to date precipitation 2.97 2.03  
Year to date precipitation 26.83 28.01  
Snow  
Snow - 0.00 in 5.00 in (1880)
Month to date snowfall 0.0 0.0  
Since 1 July snowfall 0.0 0.0  
Since 1 September snowfall 0.0 0.0  
Snow Depth 0.00 in    
Sea Level Pressure  
Sea Level Pressure 29.95 in    
Wind  
Wind Speed 9 mph ()    
Max Wind Speed 33 mph    
Max Gust Speed 45 mph    
Visibility 10.0 miles    
Events Rain    
T = Trace of Precipitation, MM = Missing Value Source: Averaged Metar Reports

Daily Weather History Graph

Daily Weather History Graph

Search for Another Location

Airport or City:

Astronomy

Oct. 23, 2019 Rise Set
Actual Time 7:33 AM EDT 6:15 PM EDT
Civil Twilight 7:04 AM EDT 6:44 PM EDT
Nautical Twilight 6:31 AM EDT 7:17 PM EDT
Astronomical Twilight 5:58 AM EDT 7:50 PM EDT
Moon 1:38 AM EDT (10/23) 4:15 PM EDT (10/23)
Length of Visible Light 11h 39m
Length of Day
10h 41m
Waning Crescent, 27% of the Moon is Illuminated
Oct 23
Waning Crescent
Oct 27
New
Nov 4
First Quarter
Nov 12
Full
Nov 19
Last Quarter

Hourly Weather History & Observations

Time (EDT) Temp. Dew Point Humidity Pressure Visibility Wind Dir Wind Speed Gust Speed Precip Events Conditions
12:54 AM 53.1 °F 48.9 °F 86% 29.81 in 10.0 mi WSW 3.5 mph - N/A   Overcast
1:54 AM 51.1 °F 48.0 °F 89% 29.82 in 10.0 mi WSW 6.9 mph - 0.01 in   Mostly Cloudy
2:54 AM 51.1 °F 45.0 °F 80% 29.83 in 10.0 mi West 12.7 mph - N/A   Mostly Cloudy
3:54 AM 48.0 °F 43.0 °F 83% 29.83 in 10.0 mi SSW 5.8 mph - N/A   Partly Cloudy
4:54 AM 48.9 °F 44.1 °F 83% 29.84 in 10.0 mi SSW 6.9 mph - 0.00 in Rain Light Rain
5:54 AM 48.0 °F 44.1 °F 86% 29.86 in 10.0 mi SSW 3.5 mph - 0.00 in   Scattered Clouds
6:54 AM 48.0 °F 43.0 °F 83% 29.89 in 10.0 mi WSW 6.9 mph - 0.00 in Rain Light Rain
7:54 AM 48.0 °F 42.1 °F 80% 29.90 in 10.0 mi SW 9.2 mph - 0.00 in   Mostly Cloudy
8:54 AM 48.0 °F 43.0 °F 83% 29.91 in 10.0 mi SW 6.9 mph - N/A   Mostly Cloudy
9:54 AM 50.0 °F 43.0 °F 77% 29.91 in 10.0 mi SW 8.1 mph - N/A   Scattered Clouds
10:54 AM 53.1 °F 43.0 °F 69% 29.91 in 10.0 mi Variable 6.9 mph - 0.00 in   Scattered Clouds
11:54 AM 55.9 °F 39.9 °F 55% 29.92 in 10.0 mi West 20.7 mph 26.5 mph N/A   Mostly Cloudy
12:54 PM 57.9 °F 34.0 °F 41% 29.93 in 10.0 mi West 23.0 mph 33.4 mph N/A   Scattered Clouds
1:54 PM 57.0 °F 35.1 °F 44% 29.94 in 10.0 mi WSW 25.3 mph 35.7 mph N/A   Mostly Cloudy
2:54 PM 55.9 °F 35.1 °F 45% 29.95 in 10.0 mi West 24.2 mph 33.4 mph N/A   Mostly Cloudy
3:54 PM 55.9 °F 34.0 °F 44% 29.98 in 10.0 mi West 27.6 mph 34.5 mph N/A   Mostly Cloudy
4:54 PM 55.0 °F 34.0 °F 45% 30.00 in 10.0 mi WSW 21.9 mph 36.8 mph N/A   Mostly Cloudy
5:54 PM 54.0 °F 33.1 °F 45% 30.03 in 10.0 mi West 18.4 mph 29.9 mph N/A   Scattered Clouds
6:54 PM 52.0 °F 34.0 °F 50% 30.05 in 10.0 mi WSW 15.0 mph - N/A   Partly Cloudy
7:54 PM 48.9 °F 35.1 °F 59% 30.07 in 10.0 mi SW 9.2 mph - N/A   Clear
8:54 PM 50.0 °F 34.0 °F 54% 30.09 in 10.0 mi SW 6.9 mph - N/A   Clear
9:54 PM 48.0 °F 33.1 °F 56% 30.10 in 10.0 mi SW 5.8 mph - N/A   Clear
10:54 PM 48.0 °F 30.9 °F 52% 30.11 in 10.0 mi SW 10.4 mph - N/A   Clear
11:54 PM 46.9 °F 30.0 °F 52% 30.10 in 10.0 mi SW 6.9 mph - N/A   Clear